Tuscaloosa, AL

11:18 PM CDT on May 28, 2017 (GMT -0500)
Tuscaloosa Municipal

Weather History for KTCL - April, 2014

Change the Weather History Date:

Sunday, April 27, 2014

  Actual Average Record
Temperature  
Mean Temperature 68 °F 66 °F  
Max Temperature 74 °F 79 °F 92 °F (1987)
Min Temperature 61 °F 54 °F 38 °F (1992)
Degree Days  
Heating Degree Days 0 2  
Month to date heating degree days 102 114  
Since 1 July heating degree days 2759 2498  
Cooling Degree Days 2    
Growing Degree Days 18 (Base 50)    
Moisture  
Dew Point 65 °F    
Average Humidity 87    
Maximum Humidity 100    
Minimum Humidity 73    
Precipitation  
Precipitation 0.77 in 0.14 in 1.48 in (2011)
Month to date precipitation 7.95 3.81  
Year to date precipitation 20.95 19.02  
Sea Level Pressure  
Sea Level Pressure 29.90 in    
Wind  
Wind Speed 7 mph (SE)    
Max Wind Speed 15 mph    
Max Gust Speed 25 mph    
Visibility 6 miles    
Events Fog , Rain , Thunderstorm    
T = Trace of Precipitation, MM = Missing Value Source: NWS Daily Summary

Daily Weather History Graph

Daily Weather History Graph

Search for Another Location

Airport or City:

Trip Planner

Search our weather history database for the weather conditions in past years. The results will help you decide how hot, cold, wet, or windy it might be!

Date:

Astronomy

Apr. 27, 2014 Rise Set
Actual Time 6:06 AM CDT 7:29 PM CDT
Civil Twilight 5:40 AM CDT 7:56 PM CDT
Nautical Twilight 5:09 AM CDT 8:27 PM CDT
Astronomical Twilight 4:36 AM CDT 9:00 PM CDT
Moon 5:00 AM CDT (4/27) 6:07 PM CDT (4/27)
Length of Visible Light 14h 15m
Length of Day
13h 23m
Waning Crescent, 3% of the Moon is Illuminated
Apr 27
Waning Crescent
Apr 29
New
May 6
First Quarter
May 14
Full
May 21
Last Quarter

Hourly Weather History & Observations

Time (CDT) Temp. Dew Point Humidity Pressure Visibility Wind Dir Wind Speed Gust Speed Precip Events Conditions
12:53 AM 62.1 °F 60.1 °F 93% 29.93 in 10.0 mi Calm Calm - N/A   Clear
1:53 AM 62.1 °F 59.0 °F 90% 29.91 in 10.0 mi Calm Calm - N/A   Clear
2:53 AM 62.1 °F 59.0 °F 90% 29.90 in 10.0 mi Calm Calm - N/A   Clear
4:53 AM 63.0 °F 61.0 °F 93% 29.90 in 7.0 mi Calm Calm - N/A   Clear
5:11 AM 64.4 °F 62.6 °F 94% 29.90 in 7.0 mi Calm Calm - N/A   Partly Cloudy
5:34 AM 66.2 °F 64.4 °F 94% 29.91 in 6.0 mi SE 3.5 mph - N/A   Mostly Cloudy
5:53 AM 66.9 °F 64.9 °F 93% 29.91 in 6.0 mi Variable 4.6 mph - N/A   Overcast
6:25 AM 66.2 °F 64.4 °F 94% 29.93 in 4.0 mi South 5.8 mph - N/A   Overcast
6:49 AM 66.2 °F 66.2 °F 100% 29.94 in 2.5 mi South 4.6 mph - N/A   Overcast
7:16 AM 69.8 °F 66.2 °F 88% 29.91 in 3.0 mi East 4.6 mph - N/A   Mostly Cloudy
7:23 AM 69.8 °F 66.2 °F 88% 29.91 in 3.0 mi Variable 3.5 mph - N/A   Scattered Clouds
7:38 AM 69.8 °F 66.2 °F 88% 29.92 in 4.0 mi ESE 4.6 mph - N/A   Mostly Cloudy
7:53 AM 70.0 °F 66.9 °F 90% 29.92 in 4.0 mi SE 4.6 mph - N/A   Mostly Cloudy
8:13 AM 71.6 °F 66.2 °F 83% 29.91 in 6.0 mi SE 5.8 mph - N/A   Scattered Clouds
8:53 AM 73.0 °F 66.9 °F 81% 29.91 in 8.0 mi South 10.4 mph - N/A   Scattered Clouds
9:15 AM 73.4 °F 66.2 °F 78% 29.92 in 8.0 mi South 10.4 mph 16.1 mph N/A   Mostly Cloudy
9:53 AM 72.0 °F 66.9 °F 84% 29.93 in 7.0 mi South 8.1 mph - N/A   Overcast
10:06 AM 73.4 °F 66.2 °F 78% 29.93 in 7.0 mi South 8.1 mph - N/A   Overcast
10:37 AM 71.6 °F 68.0 °F 88% 29.94 in 6.0 mi South 5.8 mph - 0.00 in Rain , Thunderstorm Light Rain
11:20 AM 69.8 °F 69.8 °F 100% 29.95 in 0.8 mi SSW 4.6 mph - 0.16 in Rain , Thunderstorm Heavy Thunderstorms and Rain
11:31 AM 69.8 °F 69.8 °F 100% 29.95 in 0.5 mi South 6.9 mph - 0.39 in Fog , Rain , Thunderstorm Heavy Thunderstorms and Rain
11:37 AM 69.8 °F 69.8 °F 100% 29.95 in 1.0 mi SSW 6.9 mph - 0.44 in Rain , Thunderstorm Heavy Thunderstorms and Rain
11:46 AM 69.8 °F 68.0 °F 94% 29.95 in 2.0 mi South 11.5 mph - 0.46 in Rain , Thunderstorm Thunderstorms and Rain
11:53 AM 69.1 °F 66.9 °F 93% 29.94 in 3.0 mi SSE 9.2 mph - 0.47 in Rain , Thunderstorm Thunderstorms and Rain
12:03 PM 69.8 °F 66.2 °F 88% 29.95 in 1.8 mi SSW 5.8 mph - 0.07 in Rain , Thunderstorm Heavy Thunderstorms and Rain
12:18 PM 68.0 °F 66.2 °F 94% 29.95 in 3.0 mi South 8.1 mph - 0.10 in Rain , Thunderstorm Light Thunderstorms and Rain
12:35 PM 66.2 °F 64.4 °F 94% 29.94 in 2.5 mi SE 10.4 mph - 0.15 in Rain , Thunderstorm Rain
12:37 PM 66.2 °F 64.4 °F 94% 29.93 in 3.0 mi ESE 6.9 mph - 0.16 in Rain Light Rain
12:44 PM 66.2 °F 64.4 °F 94% 29.93 in 2.5 mi SE 5.8 mph - 0.18 in Rain , Thunderstorm Rain
12:53 PM 66.9 °F 64.9 °F 93% 29.93 in 3.0 mi Variable 3.5 mph - 0.19 in Rain , Thunderstorm Light Thunderstorms and Rain
1:05 PM 66.2 °F 64.4 °F 94% 29.91 in 2.5 mi Calm Calm - 0.03 in Rain , Thunderstorm Rain
1:16 PM 66.2 °F 64.4 °F 94% 29.90 in 3.0 mi ENE 4.6 mph - 0.05 in Rain , Thunderstorm Light Rain
1:38 PM 66.2 °F 64.4 °F 94% 29.91 in 7.0 mi North 6.9 mph - 0.06 in Rain Light Rain
1:53 PM 66.9 °F 66.0 °F 97% 29.91 in 7.0 mi NNE 9.2 mph - 0.06 in Rain , Thunderstorm Light Rain
2:49 PM 68.0 °F 66.2 °F 94% 29.88 in 10.0 mi East 6.9 mph - 0.03 in   Mostly Cloudy
2:53 PM 68.0 °F 66.0 °F 93% 29.88 in 10.0 mi East 6.9 mph - 0.03 in   Overcast
3:53 PM 71.1 °F 66.0 °F 84% 29.83 in 10.0 mi East 6.9 mph - N/A   Clear
4:53 PM 72.0 °F 64.9 °F 78% 29.81 in 10.0 mi East 11.5 mph 20.7 mph N/A   Clear
5:53 PM 72.0 °F 64.9 °F 78% 29.78 in 10.0 mi ESE 12.7 mph 19.6 mph N/A   Clear
6:53 PM 72.0 °F 66.0 °F 81% 29.80 in 10.0 mi ESE 5.8 mph - N/A   Scattered Clouds
7:53 PM 72.0 °F 66.9 °F 84% 29.81 in 10.0 mi ESE 5.8 mph - N/A   Partly Cloudy
8:53 PM 71.1 °F 66.9 °F 87% 29.81 in 10.0 mi SE 10.4 mph - N/A   Clear
9:53 PM 73.0 °F 64.9 °F 76% 29.81 in 10.0 mi SSE 9.2 mph - N/A   Partly Cloudy
10:53 PM 73.0 °F 64.0 °F 73% 29.81 in 10.0 mi SSE 9.2 mph - N/A   Mostly Cloudy
11:53 PM 73.0 °F 64.9 °F 76% 29.81 in 10.0 mi South 9.2 mph - N/A   Mostly Cloudy